星链-36907(STARLINK-36907)

导读

STARLINK-36907(NORAD编号67940)是美国太空探索技术公司(SpaceX)发射的星链(Starlink)卫星,隶属于星链全球卫星互联网项目。该卫星于2024年12月8日发射,截至2026年4月已在轨飞行约483天,目前状态为正常在轨。 它运行在近地轨道,近地点约355公里,远地点约357公里,轨道倾角43度,绕行周期约91.7分钟,采用星链V1.0平台,配备相控阵天线与氩气离子推进系统,为全球提供高速低延迟卫星互联网接入服务。

Basic Information
目录编号:
67940
目录名称:
STARLINK-36907
国际标识:
2026-037J
轨道中心:
EARTH
卫星名称:
星链-36907
卫星全名:
星链-36907(STARLINK-36907)
卫星状态:
在轨 (已飞行193 天)
发射日期:
2026-02-24 UTC
国别 :
美国 (US)
星等 :
--
Orbit Information
数据来源 国际轨道数据
星历时间: 2026-09-05T09:19:05+0800
12小时前
查看轨道信息
半长轴: 6861.169km
偏心率: 0.000026
轨道倾角: 42.996°
近地点辐角 317.101°
升交点赤经 257.641°
平近点角 42.983°
近地点: 482.853km
远地点: 483.211km
周期: 94.266分钟
每日圈数: 15.275859
Detailed Information
固有亮度:
5
最大亮度:
2.5
卫星平台:
Starlink V1.0
覆盖范围:
全球
运营商:
太空探索技术公司
运营商所在国:
美国
制造商(研发单位):
太空探索技术公司
制造商所在国:
美国
使用方式:
暂无
Satellite Introduction
Starlink 计划是 SpaceX 推出的全球卫星互联网项目,通过发射低轨道卫星,为全球尤其是偏远地区提供高速、低延迟的互联网服务。自 2019 年起,Starlink 已部署数千颗卫星,旨在缩小全球数字鸿沟,推动互联网普及。该项目还为军事、航空等行业提供通信支持,带来广泛经济效益。
2D Orbit Map
3D Orbit Map
Orbit Altitude Analysis Chart
Orbit Inclination Analysis Chart
Orbit Comprehensive Analysis Chart
View Comprehensive Chart
Conjunction Data List
Event ID Objects TCA Miss Dist (km) Collision Risk Probability Collision Risk Index (CRI) Action
CDM_260903-121905-992906-794021
2026-09-03T
12:19:11+0000
0.996 km
远距离
2.048669E-5 中风险 0.61
CDM_260903-174805-992906-794021
2026-09-03T
17:48:46+0000
1.616 km
极远距离
3.992269E-6 低风险 0.47
CDM_260907-163805-788006-794021
2026-09-07T
16:38:44+0000
1.559 km
极远距离
3.801585E-6 低风险 0.47
CDM_260906-043306-403506-794021
2026-09-06T
04:33:57+0000
2.466 km
极远距离
1.550993E-6 低风险 0.39